Date_Time,Julian_Date,Latitude,Longitude,Instrument_Depth,U,V,Speed,Direction
(yyyy-mm-dd hh:mn:ss UTC),(JD),(+ deg. North),(+ deg. East),(m),(cm/s),(cm/s),(cm/s),(deg True)
1987-11-09 21:30:00 UTC,2447109.395833,25.6531,-92.0333,2500,-6.44,-1.57,6.6286,256.2992
1987-11-09 22:00:00 UTC,2447109.416667,25.6531,-92.0333,2500,-6.45,-1.91,6.7269,253.5047
1987-11-09 22:30:00 UTC,2447109.437500,25.6531,-92.0333,2500,-6.50,-2.06,6.8186,252.4154
1987-11-09 23:00:00 UTC,2447109.458333,25.6531,-92.0333,2500,-6.45,-1.91,6.7269,253.5047
1987-11-09 23:30:00 UTC,2447109.479167,25.6531,-92.0333,2500,-6.18,-2.13,6.5368,250.9830
1987-11-10 00:00:00 UTC,2447109.500000,25.6531,-92.0333,2500,-6.17,-2.16,6.5372,250.7058
1987-11-10 00:30:00 UTC,2447109.520833,25.6531,-92.0333,2500,-6.15,-2.24,6.5452,249.9870
1987-11-10 01:00:00 UTC,2447109.541667,25.6531,-92.0333,2500,-5.83,-2.75,6.4460,244.7469
1987-11-10 01:30:00 UTC,2447109.562500,25.6531,-92.0333,2500,-5.75,-2.71,6.3566,244.7653
1987-11-10 02:00:00 UTC,2447109.583333,25.6531,-92.0333,2500,-5.81,-2.57,6.3530,246.1382
1987-11-10 02:30:00 UTC,2447109.604167,25.6531,-92.0333,2500,-6.04,-2.50,6.5369,247.5150
1987-11-10 03:00:00 UTC,2447109.625000,25.6531,-92.0333,2500,-6.00,-2.35,6.4438,248.6114
1987-11-10 03:30:00 UTC,2447109.645833,25.6531,-92.0333,2500,-6.16,-1.91,6.4493,252.7732
1987-11-10 04:00:00 UTC,2447109.666667,25.6531,-92.0333,2500,-6.19,-1.80,6.4464,253.7860
1987-11-10 04:30:00 UTC,2447109.687500,25.6531,-92.0333,2500,-5.95,-1.61,6.1640,254.8590
1987-11-10 05:00:00 UTC,2447109.708333,25.6531,-92.0333,2500,-5.86,-1.58,6.0693,254.9105
1987-11-10 05:30:00 UTC,2447109.729167,25.6531,-92.0333,2500,-6.00,-1.43,6.1681,256.5946
1987-11-10 06:00:00 UTC,2447109.750000,25.6531,-92.0333,2500,-5.77,-1.15,5.8835,258.7283
1987-11-10 06:30:00 UTC,2447109.770833,25.6531,-92.0333,2500,-5.40,-1.11,5.5129,258.3843
1987-11-10 07:00:00 UTC,2447109.791667,25.6531,-92.0333,2500,-5.04,-1.40,5.2308,254.4759
1987-11-10 07:30:00 UTC,2447109.812500,25.6531,-92.0333,2500,-4.66,-1.38,4.8600,253.5040
1987-11-10 08:00:00 UTC,2447109.833333,25.6531,-92.0333,2500,-4.75,-0.44,4.7703,264.7077
1987-11-10 08:30:00 UTC,2447109.854167,25.6531,-92.0333,2500,-4.58,-0.09,4.5809,268.8743
1987-11-10 09:00:00 UTC,2447109.875000,25.6531,-92.0333,2500,-4.55,-0.54,4.5819,263.2317
1987-11-10 09:30:00 UTC,2447109.895833,25.6531,-92.0333,2500,-3.64,-0.87,3.7425,256.5579
1987-11-10 10:00:00 UTC,2447109.916667,25.6531,-92.0333,2500,-3.69,-0.62,3.7417,260.4622
1987-11-10 10:30:00 UTC,2447109.937500,25.6531,-92.0333,2500,-2.90,-0.16,2.9044,266.8420
1987-11-10 11:00:00 UTC,2447109.958333,25.6531,-92.0333,2500,-2.07,-0.59,2.1524,254.0912
1987-11-10 11:30:00 UTC,2447109.979167,25.6531,-92.0333,2500,-1.41,-0.51,1.4994,250.1148
1987-11-10 12:00:00 UTC,2447110.000000,25.6531,-92.0333,2500,-1.41,-0.51,1.4994,250.1148
1987-11-10 12:30:00 UTC,2447110.020833,25.6531,-92.0333,2500,-1.39,-0.56,1.4986,248.0566
1987-11-10 13:00:00 UTC,2447110.041667,25.6531,-92.0333,2500,-1.38,-0.58,1.4969,247.2035
1987-11-10 13:30:00 UTC,2447110.062500,25.6531,-92.0333,2500,-1.38,-0.59,1.5008,246.8515
1987-11-10 14:00:00 UTC,2447110.083333,25.6531,-92.0333,2500,-1.39,-0.56,1.4986,248.0566
1987-11-10 14:30:00 UTC,2447110.104167,25.6531,-92.0333,2500,-1.45,-0.36,1.4940,256.0568
1987-11-10 15:00:00 UTC,2447110.125000,25.6531,-92.0333,2500,-1.47,-0.31,1.5023,258.0917
1987-11-10 15:30:00 UTC,2447110.145833,25.6531,-92.0333,2500,-1.48,-0.27,1.5044,259.6611
1987-11-10 16:00:00 UTC,2447110.166667,25.6531,-92.0333,2500,-1.48,-0.27,1.5044,259.6611
1987-11-10 16:30:00 UTC,2447110.187500,25.6531,-92.0333,2500,-1.48,-0.27,1.5044,259.6611
1987-11-10 17:00:00 UTC,2447110.208333,25.6531,-92.0333,2500,-1.47,-0.28,1.4964,259.2157
1987-11-10 17:30:00 UTC,2447110.229167,25.6531,-92.0333,2500,-1.47,-0.30,1.5003,258.4654
1987-11-10 18:00:00 UTC,2447110.250000,25.6531,-92.0333,2500,-1.46,-0.35,1.5014,256.5191
1987-11-10 18:30:00 UTC,2447110.270833,25.6531,-92.0333,2500,-1.45,-0.40,1.5042,254.5779
1987-11-10 19:00:00 UTC,2447110.291667,25.6531,-92.0333,2500,-1.42,-0.47,1.4958,251.6862
1987-11-10 19:30:00 UTC,2447110.312500,25.6531,-92.0333,2500,-1.40,-0.53,1.4970,249.2648
1987-11-10 20:00:00 UTC,2447110.333333,25.6531,-92.0333,2500,-1.61,-0.77,1.7847,244.4400
1987-11-10 20:30:00 UTC,2447110.354167,25.6531,-92.0333,2500,-4.17,-2.32,4.7719,240.9104
1987-11-10 21:00:00 UTC,2447110.375000,25.6531,-92.0333,2500,-4.44,-2.76,5.2279,238.1340
1987-11-10 21:30:00 UTC,2447110.395833,25.6531,-92.0333,2500,-4.44,-2.76,5.2279,238.1340
1987-11-10 22:00:00 UTC,2447110.416667,25.6531,-92.0333,2500,-1.28,-0.78,1.4989,238.6429
1987-11-10 22:30:00 UTC,2447110.437500,25.6531,-92.0333,2500,-4.46,-2.55,5.1375,240.2413
1987-11-10 23:00:00 UTC,2447110.458333,25.6531,-92.0333,2500,-4.14,-3.05,5.1422,233.6204
1987-11-10 23:30:00 UTC,2447110.479167,25.6531,-92.0333,2500,-3.95,-3.43,5.2314,229.0304
1987-11-11 00:00:00 UTC,2447110.500000,25.6531,-92.0333,2500,-4.03,-3.33,5.2278,230.4330
1987-11-11 00:30:00 UTC,2447110.520833,25.6531,-92.0333,2500,-3.93,-3.45,5.2295,228.7213
1987-11-11 01:00:00 UTC,2447110.541667,25.6531,-92.0333,2500,-4.09,-3.55,5.4158,229.0430
1987-11-11 01:30:00 UTC,2447110.562500,25.6531,-92.0333,2500,-4.46,-3.55,5.7004,231.4815
1987-11-11 02:00:00 UTC,2447110.583333,25.6531,-92.0333,2500,-4.40,-3.77,5.7942,229.4094
1987-11-11 02:30:00 UTC,2447110.604167,25.6531,-92.0333,2500,-3.83,-3.71,5.3323,225.9118
1987-11-11 03:00:00 UTC,2447110.625000,25.6531,-92.0333,2500,-3.83,-3.71,5.3323,225.9118
1987-11-11 03:30:00 UTC,2447110.645833,25.6531,-92.0333,2500,-4.10,-3.69,5.5160,228.0128
1987-11-11 04:00:00 UTC,2447110.666667,25.6531,-92.0333,2500,-4.10,-3.69,5.5160,228.0128
1987-11-11 04:30:00 UTC,2447110.687500,25.6531,-92.0333,2500,-4.15,-3.34,5.3271,231.1722
1987-11-11 05:00:00 UTC,2447110.708333,25.6531,-92.0333,2500,-4.23,-3.24,5.3283,232.5494
1987-11-11 05:30:00 UTC,2447110.729167,25.6531,-92.0333,2500,-3.73,-2.97,4.7680,231.4716
1987-11-11 06:00:00 UTC,2447110.750000,25.6531,-92.0333,2500,-3.59,-2.69,4.4860,233.1556
1987-11-11 06:30:00 UTC,2447110.770833,25.6531,-92.0333,2500,-3.16,-2.33,3.9261,233.5971
1987-11-11 07:00:00 UTC,2447110.791667,25.6531,-92.0333,2500,-2.79,-2.49,3.7395,228.2520
1987-11-11 07:30:00 UTC,2447110.812500,25.6531,-92.0333,2500,-3.18,-1.36,3.4586,246.8449
1987-11-11 08:00:00 UTC,2447110.833333,25.6531,-92.0333,2500,-2.94,-1.83,3.4630,238.0999
1987-11-11 08:30:00 UTC,2447110.854167,25.6531,-92.0333,2500,-2.26,-1.67,2.8101,233.5379
1987-11-11 09:00:00 UTC,2447110.875000,25.6531,-92.0333,2500,-1.74,-2.32,2.9000,216.8699
1987-11-11 09:30:00 UTC,2447110.895833,25.6531,-92.0333,2500,-1.44,-1.34,1.9670,227.0601
1987-11-11 10:00:00 UTC,2447110.916667,25.6531,-92.0333,2500,-0.91,-1.75,1.9725,207.4744
1987-11-11 10:30:00 UTC,2447110.937500,25.6531,-92.0333,2500,-0.67,-1.34,1.4982,206.5650
1987-11-11 11:00:00 UTC,2447110.958333,25.6531,-92.0333,2500,-0.53,-1.40,1.4970,200.7352
1987-11-11 11:30:00 UTC,2447110.979167,25.6531,-92.0333,2500,-0.20,-1.49,1.5034,187.6450
1987-11-11 12:00:00 UTC,2447111.000000,25.6531,-92.0333,2500,-0.41,-1.44,1.4972,195.8928
1987-11-11 12:30:00 UTC,2447111.020833,25.6531,-92.0333,2500,0.45,-1.43,1.4991,162.5320
1987-11-11 13:00:00 UTC,2447111.041667,25.6531,-92.0333,2500,-0.02,-1.50,1.5001,180.7639
1987-11-11 13:30:00 UTC,2447111.062500,25.6531,-92.0333,2500,-0.02,-1.50,1.5001,180.7639
1987-11-11 14:00:00 UTC,2447111.083333,25.6531,-92.0333,2500,-0.23,-1.48,1.4978,188.8334
1987-11-11 14:30:00 UTC,2447111.104167,25.6531,-92.0333,2500,-0.10,-1.50,1.5033,183.8141
1987-11-11 15:00:00 UTC,2447111.125000,25.6531,-92.0333,2500,0.19,-1.49,1.5021,172.7330
1987-11-11 15:30:00 UTC,2447111.145833,25.6531,-92.0333,2500,-0.07,-1.50,1.5016,182.6719
1987-11-11 16:00:00 UTC,2447111.166667,25.6531,-92.0333,2500,0.02,-1.59,1.5901,179.2793
1987-11-11 16:30:00 UTC,2447111.187500,25.6531,-92.0333,2500,0.36,-1.46,1.5037,166.1486
1987-11-11 17:00:00 UTC,2447111.208333,25.6531,-92.0333,2500,-0.22,-2.52,2.5296,184.9894
1987-11-11 17:30:00 UTC,2447111.229167,25.6531,-92.0333,2500,-0.62,-1.37,1.5038,204.3494
1987-11-11 18:00:00 UTC,2447111.250000,25.6531,-92.0333,2500,-1.02,-1.57,1.8722,213.0110
1987-11-11 18:30:00 UTC,2447111.270833,25.6531,-92.0333,2500,-0.78,-1.28,1.4989,211.3571
1987-11-11 19:00:00 UTC,2447111.291667,25.6531,-92.0333,2500,-0.92,-1.18,1.4963,217.9422
1987-11-11 19:30:00 UTC,2447111.312500,25.6531,-92.0333,2500,-1.37,-2.01,2.4325,214.2780
1987-11-11 20:00:00 UTC,2447111.333333,25.6531,-92.0333,2500,-2.11,-3.42,4.0185,211.6729
1987-11-11 20:30:00 UTC,2447111.354167,25.6531,-92.0333,2500,-2.76,-3.42,4.3948,218.9041
1987-11-11 21:00:00 UTC,2447111.375000,25.6531,-92.0333,2500,-2.78,-3.76,4.6761,216.4778
1987-11-11 21:30:00 UTC,2447111.395833,25.6531,-92.0333,2500,-2.87,-3.93,4.8664,216.1399
1987-11-11 22:00:00 UTC,2447111.416667,25.6531,-92.0333,2500,-3.15,-3.58,4.7685,221.3442
1987-11-11 22:30:00 UTC,2447111.437500,25.6531,-92.0333,2500,-3.17,-3.56,4.7668,221.6835
1987-11-11 23:00:00 UTC,2447111.458333,25.6531,-92.0333,2500,-2.92,-3.40,4.4818,220.6568
1987-11-11 23:30:00 UTC,2447111.479167,25.6531,-92.0333,2500,-2.26,-3.77,4.3955,210.9414
1987-11-12 00:00:00 UTC,2447111.500000,25.6531,-92.0333,2500,-2.30,-3.85,4.4847,210.8542
1987-11-12 00:30:00 UTC,2447111.520833,25.6531,-92.0333,2500,-2.14,-4.26,4.7673,206.6726
1987-11-12 01:00:00 UTC,2447111.541667,25.6531,-92.0333,2500,-1.78,-4.52,4.8579,201.4948
1987-11-12 01:30:00 UTC,2447111.562500,25.6531,-92.0333,2500,-1.93,-4.56,4.9516,202.9403
1987-11-12 02:00:00 UTC,2447111.583333,25.6531,-92.0333,2500,-1.53,-4.61,4.8573,198.3604
1987-11-12 02:30:00 UTC,2447111.604167,25.6531,-92.0333,2500,-1.25,-4.50,4.6704,195.5241
1987-11-12 03:00:00 UTC,2447111.625000,25.6531,-92.0333,2500,-1.49,-3.93,4.2030,200.7635
1987-11-12 03:30:00 UTC,2447111.645833,25.6531,-92.0333,2500,-1.36,-3.78,4.0172,199.7882
1987-11-12 04:00:00 UTC,2447111.666667,25.6531,-92.0333,2500,-1.21,-3.73,3.9214,197.9729
1987-11-12 04:30:00 UTC,2447111.687500,25.6531,-92.0333,2500,-1.25,-3.42,3.6413,200.0772
1987-11-12 05:00:00 UTC,2447111.708333,25.6531,-92.0333,2500,-0.54,-1.40,1.5005,201.0923
1987-11-12 05:30:00 UTC,2447111.729167,25.6531,-92.0333,2500,-0.76,-1.71,1.8713,203.9625
1987-11-12 06:00:00 UTC,2447111.750000,25.6531,-92.0333,2500,-0.57,-1.39,1.5023,202.2972
1987-11-12 06:30:00 UTC,2447111.770833,25.6531,-92.0333,2500,-0.54,-1.40,1.5005,201.0923
1987-11-12 07:00:00 UTC,2447111.791667,25.6531,-92.0333,2500,-0.69,-1.33,1.4983,207.4202
1987-11-12 07:30:00 UTC,2447111.812500,25.6531,-92.0333,2500,-0.78,-1.28,1.4989,211.3571
1987-11-12 08:00:00 UTC,2447111.833333,25.6531,-92.0333,2500,-0.75,-1.30,1.5008,209.9817
1987-11-12 08:30:00 UTC,2447111.854167,25.6531,-92.0333,2500,-0.67,-1.34,1.4982,206.5650
1987-11-12 09:00:00 UTC,2447111.875000,25.6531,-92.0333,2500,-0.52,-1.41,1.5028,200.2437
1987-11-12 09:30:00 UTC,2447111.895833,25.6531,-92.0333,2500,-0.36,-1.46,1.5037,193.8514
1987-11-12 10:00:00 UTC,2447111.916667,25.6531,-92.0333,2500,-0.08,-1.50,1.5021,183.0529
1987-11-12 10:30:00 UTC,2447111.937500,25.6531,-92.0333,2500,-0.02,-1.50,1.5001,180.7639
1987-11-12 11:00:00 UTC,2447111.958333,25.6531,-92.0333,2500,0.66,-1.35,1.5027,153.9465
1987-11-12 11:30:00 UTC,2447111.979167,25.6531,-92.0333,2500,0.18,-1.49,1.5008,173.1117
1987-11-12 12:00:00 UTC,2447112.000000,25.6531,-92.0333,2500,0.20,-1.49,1.5034,172.3550
1987-11-12 12:30:00 UTC,2447112.020833,25.6531,-92.0333,2500,0.25,-1.48,1.5010,170.4122
1987-11-12 13:00:00 UTC,2447112.041667,25.6531,-92.0333,2500,0.69,-2.53,2.6224,164.7449
1987-11-12 13:30:00 UTC,2447112.062500,25.6531,-92.0333,2500,0.98,-3.90,4.0212,165.8946
1987-11-12 14:00:00 UTC,2447112.083333,25.6531,-92.0333,2500,1.12,-3.96,4.1153,164.2076
1987-11-12 14:30:00 UTC,2447112.104167,25.6531,-92.0333,2500,1.00,-3.51,3.6497,164.0977
1987-11-12 15:00:00 UTC,2447112.125000,25.6531,-92.0333,2500,1.02,-3.50,3.6456,163.7523
1987-11-12 15:30:00 UTC,2447112.145833,25.6531,-92.0333,2500,0.54,-1.99,2.0620,164.8180
1987-11-12 16:00:00 UTC,2447112.166667,25.6531,-92.0333,2500,0.32,-1.47,1.5044,167.7190
1987-11-12 16:30:00 UTC,2447112.187500,25.6531,-92.0333,2500,0.66,-3.30,3.3654,168.6901
1987-11-12 17:00:00 UTC,2447112.208333,25.6531,-92.0333,2500,0.39,-4.47,4.4870,175.0137
1987-11-12 17:30:00 UTC,2447112.229167,25.6531,-92.0333,2500,0.38,-4.56,4.5758,175.2363
1987-11-12 18:00:00 UTC,2447112.250000,25.6531,-92.0333,2500,0.34,-4.47,4.4829,175.6503
1987-11-12 18:30:00 UTC,2447112.270833,25.6531,-92.0333,2500,0.23,-4.39,4.3960,177.0009
1987-11-12 19:00:00 UTC,2447112.291667,25.6531,-92.0333,2500,0.31,-4.48,4.4907,176.0416
1987-11-12 19:30:00 UTC,2447112.312500,25.6531,-92.0333,2500,0.22,-4.85,4.8550,177.4028
1987-11-12 20:00:00 UTC,2447112.333333,25.6531,-92.0333,2500,-0.45,-5.03,5.0501,185.1123
1987-11-12 20:30:00 UTC,2447112.354167,25.6531,-92.0333,2500,-0.74,-5.37,5.4207,187.8461
1987-11-12 21:00:00 UTC,2447112.375000,25.6531,-92.0333,2500,-1.03,-5.32,5.4188,190.9574
1987-11-12 21:30:00 UTC,2447112.395833,25.6531,-92.0333,2500,-0.89,-4.87,4.9507,190.3566
1987-11-12 22:00:00 UTC,2447112.416667,25.6531,-92.0333,2500,-0.55,-4.36,4.3946,187.1897
1987-11-12 22:30:00 UTC,2447112.437500,25.6531,-92.0333,2500,-0.54,-4.08,4.1156,187.5395
1987-11-12 23:00:00 UTC,2447112.458333,25.6531,-92.0333,2500,-0.43,-4.00,4.0230,186.1357
1987-11-12 23:30:00 UTC,2447112.479167,25.6531,-92.0333,2500,-0.21,-4.01,4.0155,182.9978
1987-11-13 00:00:00 UTC,2447112.500000,25.6531,-92.0333,2500,-0.14,-4.02,4.0224,181.9946
1987-11-13 00:30:00 UTC,2447112.520833,25.6531,-92.0333,2500,0.18,-4.02,4.0240,177.4362
1987-11-13 01:00:00 UTC,2447112.541667,25.6531,-92.0333,2500,0.21,-4.01,4.0155,177.0022
1987-11-13 01:30:00 UTC,2447112.562500,25.6531,-92.0333,2500,0.31,-3.82,3.8326,175.3605
1987-11-13 02:00:00 UTC,2447112.583333,25.6531,-92.0333,2500,0.44,-3.53,3.5573,172.8949
1987-11-13 02:30:00 UTC,2447112.604167,25.6531,-92.0333,2500,0.46,-3.71,3.7384,172.9320
1987-11-13 03:00:00 UTC,2447112.625000,25.6531,-92.0333,2500,0.46,-3.90,3.9270,173.2731
1987-11-13 03:30:00 UTC,2447112.645833,25.6531,-92.0333,2500,0.37,-3.72,3.7384,174.3199
1987-11-13 04:00:00 UTC,2447112.666667,25.6531,-92.0333,2500,0.30,-3.35,3.3634,174.8827
1987-11-13 04:30:00 UTC,2447112.687500,25.6531,-92.0333,2500,0.32,-3.35,3.3652,174.5435
1987-11-13 05:00:00 UTC,2447112.708333,25.6531,-92.0333,2500,0.41,-3.44,3.4643,173.2032
1987-11-13 05:30:00 UTC,2447112.729167,25.6531,-92.0333,2500,0.40,-3.34,3.3639,173.1707
1987-11-13 06:00:00 UTC,2447112.750000,25.6531,-92.0333,2500,0.38,-3.35,3.3715,173.5284
1987-11-13 06:30:00 UTC,2447112.770833,25.6531,-92.0333,2500,0.37,-3.25,3.2710,173.5051
1987-11-13 07:00:00 UTC,2447112.791667,25.6531,-92.0333,2500,0.38,-3.81,3.8289,174.3043
1987-11-13 07:30:00 UTC,2447112.812500,25.6531,-92.0333,2500,0.64,-4.44,4.4859,171.7976
1987-11-13 08:00:00 UTC,2447112.833333,25.6531,-92.0333,2500,0.87,-4.50,4.5833,169.0578
1987-11-13 08:30:00 UTC,2447112.854167,25.6531,-92.0333,2500,1.29,-4.88,5.0476,165.1929
1987-11-13 09:00:00 UTC,2447112.875000,25.6531,-92.0333,2500,1.35,-4.86,5.0440,164.4759
1987-11-13 09:30:00 UTC,2447112.895833,25.6531,-92.0333,2500,1.47,-4.63,4.8578,162.3856
1987-11-13 10:00:00 UTC,2447112.916667,25.6531,-92.0333,2500,1.41,-4.45,4.6680,162.4190
1987-11-13 10:30:00 UTC,2447112.937500,25.6531,-92.0333,2500,1.41,-4.55,4.7635,162.7823
1987-11-13 11:00:00 UTC,2447112.958333,25.6531,-92.0333,2500,1.23,-4.32,4.4917,164.1072
1987-11-13 11:30:00 UTC,2447112.979167,25.6531,-92.0333,2500,1.18,-4.23,4.3915,164.4130
1987-11-13 12:00:00 UTC,2447113.000000,25.6531,-92.0333,2500,1.37,-3.48,3.7400,158.5115
1987-11-13 12:30:00 UTC,2447113.020833,25.6531,-92.0333,2500,1.33,-3.50,3.7442,159.1932
1987-11-13 13:00:00 UTC,2447113.041667,25.6531,-92.0333,2500,1.26,-3.52,3.7387,160.3049
1987-11-13 13:30:00 UTC,2447113.062500,25.6531,-92.0333,2500,0.98,-2.73,2.9006,160.2532
1987-11-13 14:00:00 UTC,2447113.083333,25.6531,-92.0333,2500,0.51,-1.41,1.4994,160.1148
1987-11-13 14:30:00 UTC,2447113.104167,25.6531,-92.0333,2500,0.56,-1.39,1.4986,158.0566
1987-11-13 15:00:00 UTC,2447113.125000,25.6531,-92.0333,2500,0.56,-1.39,1.4986,158.0566
1987-11-13 15:30:00 UTC,2447113.145833,25.6531,-92.0333,2500,0.57,-1.39,1.5023,157.7028
1987-11-13 16:00:00 UTC,2447113.166667,25.6531,-92.0333,2500,0.55,-1.40,1.5042,158.5523
1987-11-13 16:30:00 UTC,2447113.187500,25.6531,-92.0333,2500,0.95,-2.34,2.5255,157.9037
1987-11-13 17:00:00 UTC,2447113.208333,25.6531,-92.0333,2500,0.98,-2.33,2.5277,157.1883
1987-11-13 17:30:00 UTC,2447113.229167,25.6531,-92.0333,2500,0.85,-1.88,2.0632,155.6709
1987-11-13 18:00:00 UTC,2447113.250000,25.6531,-92.0333,2500,0.77,-1.81,1.9670,156.9544
1987-11-13 18:30:00 UTC,2447113.270833,25.6531,-92.0333,2500,0.65,-1.56,1.6900,157.3801
1987-11-13 19:00:00 UTC,2447113.291667,25.6531,-92.0333,2500,0.86,-2.28,2.4368,159.3339
1987-11-13 19:30:00 UTC,2447113.312500,25.6531,-92.0333,2500,1.12,-3.07,3.2679,159.9570
1987-11-13 20:00:00 UTC,2447113.333333,25.6531,-92.0333,2500,1.07,-3.29,3.4596,161.9840
1987-11-13 20:30:00 UTC,2447113.354167,25.6531,-92.0333,2500,0.95,-3.42,3.5495,164.4759
1987-11-13 21:00:00 UTC,2447113.375000,25.6531,-92.0333,2500,0.77,-2.99,3.0876,165.5587
1987-11-13 21:30:00 UTC,2447113.395833,25.6531,-92.0333,2500,0.88,-3.25,3.3670,164.8493
1987-11-13 22:00:00 UTC,2447113.416667,25.6531,-92.0333,2500,0.70,-3.01,3.0903,166.9081
1987-11-13 22:30:00 UTC,2447113.437500,25.6531,-92.0333,2500,0.40,-1.83,1.8732,167.6702
1987-11-13 23:00:00 UTC,2447113.458333,25.6531,-92.0333,2500,0.34,-1.46,1.4991,166.8908
1987-11-13 23:30:00 UTC,2447113.479167,25.6531,-92.0333,2500,0.39,-1.45,1.5015,164.9457
1987-11-14 00:00:00 UTC,2447113.500000,25.6531,-92.0333,2500,0.53,-1.40,1.4970,159.2648
1987-11-14 00:30:00 UTC,2447113.520833,25.6531,-92.0333,2500,0.47,-1.42,1.4958,161.6862
1987-11-14 01:00:00 UTC,2447113.541667,25.6531,-92.0333,2500,0.48,-1.42,1.4989,161.3233
1987-11-14 01:30:00 UTC,2447113.562500,25.6531,-92.0333,2500,0.52,-1.41,1.5028,159.7563
1987-11-14 02:00:00 UTC,2447113.583333,25.6531,-92.0333,2500,0.58,-1.38,1.4969,157.2035
1987-11-14 02:30:00 UTC,2447113.604167,25.6531,-92.0333,2500,0.70,-1.33,1.5030,152.2415
1987-11-14 03:00:00 UTC,2447113.625000,25.6531,-92.0333,2500,0.70,-1.33,1.5030,152.2415
1987-11-14 03:30:00 UTC,2447113.645833,25.6531,-92.0333,2500,0.79,-1.28,1.5042,148.3176
1987-11-14 04:00:00 UTC,2447113.666667,25.6531,-92.0333,2500,0.78,-1.28,1.4989,148.6429
1987-11-14 04:30:00 UTC,2447113.687500,25.6531,-92.0333,2500,0.75,-1.30,1.5008,150.0183
1987-11-14 05:00:00 UTC,2447113.708333,25.6531,-92.0333,2500,0.73,-1.31,1.4997,150.8712
1987-11-14 05:30:00 UTC,2447113.729167,25.6531,-92.0333,2500,0.75,-1.30,1.5008,150.0183
1987-11-14 06:00:00 UTC,2447113.750000,25.6531,-92.0333,2500,0.81,-1.26,1.4979,147.2648
1987-11-14 06:30:00 UTC,2447113.770833,25.6531,-92.0333,2500,0.80,-1.27,1.5010,147.7923
1987-11-14 07:00:00 UTC,2447113.791667,25.6531,-92.0333,2500,0.78,-1.28,1.4989,148.6429
1987-11-14 07:30:00 UTC,2447113.812500,25.6531,-92.0333,2500,0.68,-1.34,1.5027,153.0939
1987-11-14 08:00:00 UTC,2447113.833333,25.6531,-92.0333,2500,0.51,-1.41,1.4994,160.1148
1987-11-14 08:30:00 UTC,2447113.854167,25.6531,-92.0333,2500,0.45,-1.43,1.4991,162.5320
1987-11-14 09:00:00 UTC,2447113.875000,25.6531,-92.0333,2500,0.48,-1.42,1.4989,161.3233
1987-11-14 09:30:00 UTC,2447113.895833,25.6531,-92.0333,2500,0.48,-1.42,1.4989,161.3233
1987-11-14 10:00:00 UTC,2447113.916667,25.6531,-92.0333,2500,0.47,-1.42,1.4958,161.6862
1987-11-14 10:30:00 UTC,2447113.937500,25.6531,-92.0333,2500,0.44,-1.44,1.5057,163.0092
1987-11-14 11:00:00 UTC,2447113.958333,25.6531,-92.0333,2500,0.50,-1.42,1.5055,160.6022
1987-11-14 11:30:00 UTC,2447113.979167,25.6531,-92.0333,2500,0.51,-1.41,1.4994,160.1148
1987-11-14 12:00:00 UTC,2447114.000000,25.6531,-92.0333,2500,0.60,-1.38,1.5048,156.5014
1987-11-14 12:30:00 UTC,2447114.020833,25.6531,-92.0333,2500,0.62,-1.37,1.5038,155.6506
1987-11-14 13:00:00 UTC,2447114.041667,25.6531,-92.0333,2500,0.62,-1.36,1.4947,155.4926
1987-11-14 13:30:00 UTC,2447114.062500,25.6531,-92.0333,2500,0.57,-1.39,1.5023,157.7028
1987-11-14 14:00:00 UTC,2447114.083333,25.6531,-92.0333,2500,0.57,-1.39,1.5023,157.7028
1987-11-14 14:30:00 UTC,2447114.104167,25.6531,-92.0333,2500,0.57,-1.39,1.5023,157.7028
1987-11-14 15:00:00 UTC,2447114.125000,25.6531,-92.0333,2500,0.56,-1.39,1.4986,158.0566
1987-11-14 15:30:00 UTC,2447114.145833,25.6531,-92.0333,2500,0.57,-1.39,1.5023,157.7028
1987-11-14 16:00:00 UTC,2447114.166667,25.6531,-92.0333,2500,0.58,-1.48,1.5896,158.6002
1987-11-14 16:30:00 UTC,2447114.187500,25.6531,-92.0333,2500,0.52,-1.41,1.5028,159.7563
1987-11-14 17:00:00 UTC,2447114.208333,25.6531,-92.0333,2500,0.51,-1.41,1.4994,160.1148
1987-11-14 17:30:00 UTC,2447114.229167,25.6531,-92.0333,2500,0.51,-1.41,1.4994,160.1148
1987-11-14 18:00:00 UTC,2447114.250000,25.6531,-92.0333,2500,0.53,-1.40,1.4970,159.2648
1987-11-14 18:30:00 UTC,2447114.270833,25.6531,-92.0333,2500,0.48,-1.42,1.4989,161.3233
1987-11-14 19:00:00 UTC,2447114.291667,25.6531,-92.0333,2500,0.45,-1.43,1.4991,162.5320
1987-11-14 19:30:00 UTC,2447114.312500,25.6531,-92.0333,2500,0.47,-1.42,1.4958,161.6862
1987-11-14 20:00:00 UTC,2447114.333333,25.6531,-92.0333,2500,0.43,-1.44,1.5028,163.3738
1987-11-14 20:30:00 UTC,2447114.354167,25.6531,-92.0333,2500,0.39,-1.45,1.5015,164.9457
1987-11-14 21:00:00 UTC,2447114.375000,25.6531,-92.0333,2500,0.37,-1.45,1.4965,165.6852
1987-11-14 21:30:00 UTC,2447114.395833,25.6531,-92.0333,2500,0.36,-1.46,1.5037,166.1486
1987-11-14 22:00:00 UTC,2447114.416667,25.6531,-92.0333,2500,0.32,-1.47,1.5044,167.7190
1987-11-14 22:30:00 UTC,2447114.437500,25.6531,-92.0333,2500,0.29,-1.47,1.4983,168.8400
1987-11-14 23:00:00 UTC,2447114.458333,25.6531,-92.0333,2500,0.25,-1.48,1.5010,170.4122
1987-11-14 23:30:00 UTC,2447114.479167,25.6531,-92.0333,2500,0.25,-1.48,1.5010,170.4122
1987-11-15 00:00:00 UTC,2447114.500000,25.6531,-92.0333,2500,0.25,-1.48,1.5010,170.4122
1987-11-15 00:30:00 UTC,2447114.520833,25.6531,-92.0333,2500,0.29,-1.47,1.4983,168.8400
1987-11-15 01:00:00 UTC,2447114.541667,25.6531,-92.0333,2500,0.28,-1.47,1.4964,169.2157
1987-11-15 01:30:00 UTC,2447114.562500,25.6531,-92.0333,2500,0.31,-1.47,1.5023,168.0917
1987-11-15 02:00:00 UTC,2447114.583333,25.6531,-92.0333,2500,0.30,-1.47,1.5003,168.4654
1987-11-15 02:30:00 UTC,2447114.604167,25.6531,-92.0333,2500,0.34,-1.46,1.4991,166.8908
1987-11-15 03:00:00 UTC,2447114.625000,25.6531,-92.0333,2500,0.40,-1.45,1.5042,164.5778
1987-11-15 03:30:00 UTC,2447114.645833,25.6531,-92.0333,2500,0.42,-1.44,1.5000,163.7398
1987-11-15 04:00:00 UTC,2447114.666667,25.6531,-92.0333,2500,0.47,-1.42,1.4958,161.6862
1987-11-15 04:30:00 UTC,2447114.687500,25.6531,-92.0333,2500,0.50,-1.42,1.5055,160.6022
1987-11-15 05:00:00 UTC,2447114.708333,25.6531,-92.0333,2500,0.48,-1.42,1.4989,161.3233
1987-11-15 05:30:00 UTC,2447114.729167,25.6531,-92.0333,2500,0.52,-1.41,1.5028,159.7563
1987-11-15 06:00:00 UTC,2447114.750000,25.6531,-92.0333,2500,0.56,-1.39,1.4986,158.0566
1987-11-15 06:30:00 UTC,2447114.770833,25.6531,-92.0333,2500,0.60,-1.38,1.5048,156.5014
1987-11-15 07:00:00 UTC,2447114.791667,25.6531,-92.0333,2500,0.60,-1.38,1.5048,156.5014
1987-11-15 07:30:00 UTC,2447114.812500,25.6531,-92.0333,2500,0.61,-1.37,1.4997,155.9987
1987-11-15 08:00:00 UTC,2447114.833333,25.6531,-92.0333,2500,0.62,-1.37,1.5038,155.6506
1987-11-15 08:30:00 UTC,2447114.854167,25.6531,-92.0333,2500,0.64,-1.36,1.5031,154.7989
1987-11-15 09:00:00 UTC,2447114.875000,25.6531,-92.0333,2500,0.66,-1.35,1.5027,153.9465
1987-11-15 09:30:00 UTC,2447114.895833,25.6531,-92.0333,2500,0.70,-1.33,1.5030,152.2415
1987-11-15 10:00:00 UTC,2447114.916667,25.6531,-92.0333,2500,0.65,-1.35,1.4983,154.2900
1987-11-15 10:30:00 UTC,2447114.937500,25.6531,-92.0333,2500,0.67,-1.34,1.4982,153.4350
1987-11-15 11:00:00 UTC,2447114.958333,25.6531,-92.0333,2500,0.67,-1.34,1.4982,153.4350
1987-11-15 11:30:00 UTC,2447114.979167,25.6531,-92.0333,2500,0.66,-1.35,1.5027,153.9465